Lid_Strength_Index
-0 1 4 6 10 12 14 13 11 10 10 8 6 8 8 8 10 12 3 1 -0 -0 -0 -1 -1 -2 -1 -1 -2 -2 -2 -2 -2 -2 -2 -2 -2 -2 -2 -2 -2 -2 -2 -2 -2 -2 -2 -2 -2
2 2 6 9 12 15 14 12 11 10 8 6 6 7 8 11 6 5 3 0 -0 -0 -0 -0 -1 -2 -1 -2 -2 -2 -2 -2 -2 -2 -2 -2 -2 -2 -2 -2 -2 -2 -2 -2 -2 -2 -2 -2 -2
2 5 8 12 14 14 14 11 10 8 7 7 8 6 8 9 5 4 2 0 -0 -0 -0 -0 -1 -2 -1 -2 -2 -2 -2 -2 -2 -2 -1 -2 -2 -2 -2 -2 -2 -2 -2 -2 -2 -2 -2 -2 -2
4 6 9 13 14 13 10 9 9 8 9 6 7 10 6 3 4 3 1 0 0 0 -0 -0 -1 -2 -2 -2 -2 -2 -2 -2 -2 -2 -2 -2 -2 -2 -2 -2 -2 -2 -2 -2 -2 -2 -2 -2 -2
5 8 12 14 14 13 11 8 8 9 9 9 7 10 9 4 2 1 1 0 1 1 0 -0 -1 -1 -2 -2 -2 -2 -2 -2 -2 -3 -3 -2 -2 -2 -2 -2 -2 -2 -2 -2 -2 -1 -1 -1 -2
8 8 13 15 14 12 10 9 8 9 9 8 8 9 8 3 3 2 1 1 0 0 0 -0 1 -0 -1 -1 -2 -2 -2 -2 -2 -3 -3 -3 -2 -2 -2 -2 -2 -1 -1 -1 -1 -1 -1 -1 -1
9 10 13 13 14 13 10 9 10 9 9 9 6 9 8 6 3 3 2 1 0 0 0 0 0 0 0 -1 -1 -1 -2 -2 -2 -2 -2 -2 -2 -2 -2 -2 -2 -2 -1 -1 -1 -1 -1 -1 -1
9 10 13 13 13 13 11 10 10 10 10 7 5 9 10 5 3 3 2 2 2 1 0 0 1 0 0 0 1 -0 -1 -1 -2 -1 -1 -0 -1 -1 -1 -1 -2 -2 -2 -1 -1 -1 -1 -1 -1
8 12 13 12 12 12 10 10 9 8 8 7 6 6 5 3 2 4 5 4 3 1 1 1 0 0 0 0 1 1 0 -0 -0 -0 0 1 1 1 1 0 -1 -2 -2 -2 -1 -1 -1 -1 -0
10 13 12 10 10 11 10 10 10 10 8 8 8 6 4 3 3 4 5 4 4 2 2 1 1 0 1 -0 1 1 0 1 1 1 1 1 1 1 1 2 1 -1 -1 -2 -2 -1 -1 0 3
9 12 10 9 9 9 10 10 9 10 11 8 7 6 5 5 4 4 4 4 3 3 2 1 1 1 -0 -0 1 1 1 1 1 1 1 1 1 2 2 2 2 2 2 1 0 1 1 3 3
11 9 9 8 8 8 10 9 10 10 10 9 7 4 4 5 4 4 4 5 5 4 3 2 1 1 0 -0 1 0 1 1 2 1 1 2 2 3 3 3 2 2 2 3 3 2 2 2 3
9 10 9 8 8 8 8 9 9 9 8 6 4 4 5 4 4 4 3 4 4 4 4 3 2 1 1 0 1 0 0 1 1 1 1 2 2 3 3 3 3 3 3 3 3 3 3 3 3
10 9 9 8 8 8 9 9 9 8 8 7 5 5 5 4 4 4 4 4 4 4 4 3 2 1 1 1 0 0 1 1 1 1 1 2 2 2 3 3 3 3 3 3 3 4 4 4 3
8 11 9 9 9 9 7 10 9 8 8 8 6 6 5 4 4 4 3 3 3 3 4 3 3 2 2 1 0 0 0 1 1 1 2 2 2 2 2 3 3 3 4 4 5 5 4 4 3
10 11 14 11 8 8 8 13 9 7 8 7 7 8 5 5 4 3 3 3 3 3 4 4 2 3 2 1 1 1 1 1 1 1 2 2 2 3 3 2 3 2 3 4 5 5 5 5 4
13 17 15 13 10 10 9 12 9 8 7 8 8 8 8 7 7 4 3 3 2 2 3 3 3 3 3 2 1 1 2 1 1 1 2 3 2 3 3 4 3 4 4 4 4 4 5 6 6
16 16 15 14 13 12 12 11 9 9 10 9 9 10 10 9 8 6 5 2 2 2 3 4 3 2 2 3 3 2 2 2 1 1 1 2 2 2 3 3 4 5 6 6 7 6 7 6 6
12 14 16 15 12 14 14 14 11 10 10 11 11 11 10 10 8 7 6 6 5 3 3 4 4 3 3 4 4 4 3 2 2 2 1 2 2 2 3 3 4 5 5 5 6 6 7 6 8
12 13 15 13 12 13 13 14 13 11 11 10 9 9 10 10 9 8 7 7 6 5 3 3 4 4 4 3 3 4 4 3 3 2 2 2 2 2 2 3 3 4 4 5 5 5 7 7 7
12 13 14 14 11 12 13 14 13 11 11 10 10 9 9 9 8 9 8 8 8 7 5 3 3 3 3 3 4 4 4 5 4 4 3 2 2 2 3 3 3 3 4 4 5 5 6 6 7
15 10 11 13 14 17 13 19 16 13 12 11 10 9 8 7 7 6 7 8 8 7 7 4 2 3 3 3 4 4 4 5 4 4 3 3 3 2 2 2 3 3 3 4 4 4 5 6 6
12 10 11 12 15 16 16 17 17 14 14 13 11 10 9 8 7 7 7 7 7 5 5 5 4 2 2 3 3 4 4 4 4 4 4 4 3 3 3 3 3 3 3 3 3 3 4 4 5
9 11 12 12 14 18 15 16 19 15 13 12 11 10 10 9 9 8 7 6 7 8 8 7 6 5 2 3 3 4 4 4 4 4 4 4 4 3 3 2 3 2 2 3 3 3 3 3 3
10 13 19 19 20 19 17 16 16 14 13 12 11 11 11 10 9 8 8 8 9 9 8 8 8 8 7 5 4 4 3 4 4 3 3 3 3 3 3 3 2 2 2 2 2 2 2 2 3
12 13 18 22 21 20 17 18 16 13 11 11 11 11 10 10 10 9 8 9 9 9 9 9 9 9 9 9 9 8 8 8 7 7 6 5 3 2 1 1 1 1 1 1 0 2 2 2 2
13 15 12 18 24 21 19 18 15 13 13 13 12 12 11 10 10 10 10 10 10 10 10 10 9 9 9 9 9 9 9 9 8 8 8 7 7 6 6 5 4 2 1 0 1 1 1 1 1
11 9 16 17 23 25 20 20 19 16 14 13 13 11 10 11 10 10 10 10 10 10 10 9 9 9 9 9 9 9 9 9 8 8 8 8 8 7 7 6 5 4 3 1 0 1 1 1 1
12 13 13 13 17 20 22 20 16 14 13 12 12 11 10 10 10 10 10 10 10 10 10 10 9 9 9 9 9 9 10 9 9 9 9 9 8 8 8 7 6 6 5 4 3 2 1 1 1
10 12 12 16 18 16 18 18 15 14 13 13 12 11 11 10 10 11 11 11 11 10 10 10 9 9 9 10 10 10 10 10 10 10 9 9 9 8 8 8 7 6 6 5 5 4 3 2 2